Regional Weather Roundup
Issued by NWS Newport/Morehead, NC

Current Version | Previous Version | Text Only | Print | Product List | Glossary On
Versions: 1 2 3 4 5 6 7 8 9 10 11 12 13 14 15 16 17 18 19 20 21 22 23 24 25 26 27 28 29 30 31 32 33 34 35 36 37 38 39 40 41 42 43 44 45 46 47 48 49 50
000
ASUS42 KMHX 260313
RWRMHX
WEATHER ROUNDUP FOR EASTERN NORTH CAROLINA
NATIONAL WEATHER SERVICE NEWPORT/MOREHEAD CITY NC
1100 PM EDT MON JUL 25 2016

NOTE: "FAIR" INDICATES FEW OR NO CLOUDS BELOW 12,000 FEET
WITH NO SIGNIFICANT WEATHER AND/OR OBSTRUCTIONS TO VISIBILITY

NCZ015>017-031-032-045>047-102-103-260400-
NORTH COAST

CITY           SKY/WX    TMP DP  RH WIND       PRES   REMARKS
EDENTON        PTCLDY    84  73  69 S9G16     30.00S
ELIZABETH CITY CLOUDY    83  74  74 S14       29.98F
KITTY HAWK     PTCLDY    83  75  76 SW7G17    29.99F
MANTEO           N/A     82  78  86 SW15      30.01S

$$

NCZ045>047-081-094-103-104-260400-
CENTRAL COAST

CITY           SKY/WX    TMP DP  RH WIND       PRES   REMARKS
FRISCO         PTCLDY    82  75  79 SW12      30.03S

$$

NCZ095-097-098-100-101-260400-
SOUTHERN COAST

CITY           SKY/WX    TMP DP  RH WIND       PRES   REMARKS
BEAUFORT       PTCLDY    83  75  77 SW18      30.03F
CEDAR ISLAND   NOT AVBL
JACKSONVILLE   CLEAR     80  74  81 SW7       30.03S
PINEY ISLAND   NOT AVBL
WILMINGTON     CLEAR     81  74  79 SW9       30.04S


$$

NCZ011>013-027>030-043-044-078>080-089-090>093-098-260400-
COASTAL PLAIN

CITY           SKY/WX    TMP DP  RH WIND       PRES   REMARKS
AHOSKIE        CLOUDY    81  76  86 S7        29.97F
CLINTON        CLEAR     81  74  81 S6        30.03S
ELIZABETHTOWN  PTCLDY    81  73  77 S6        30.04R
GOLDSBORO      PTCLDY    82  77  84 SW8       30.00R
GREENVILLE     CLEAR     82  73  74 SW9G16    30.02S
HAVELOCK       PTCLDY    82  75  79 SW8       30.04S
KENANSVILLE    NOT AVBL
KINSTON        CLOUDY    83  72  69 S10       30.02S
NEW BERN       CLEAR     80  75  84 SW8       30.03S
RICHLANDS      CLEAR     78  75  90 S7        30.04R
ROCKY MOUNT    CLEAR     83  75  77 S9        29.99R
WASHINGTON     NOT AVBL
WHITEVILLE     CLEAR     80  73  81 S6        30.04R

$$

AMZ130-135-150-152-154-156-158-170-250-252-270-ANZ085-086-088-633-658-670-260400-
MARINE OBSERVATIONS

STATION/POSITION TIME  TEMP    WIND        PRES    WAVE   SWELL
                       AIR SEA DIR/SP/G            HT/PER HT/PER
                 (UTC) (F)     (DEG/KT/KT) (MB)    (FT/S) (FT/S)
CHESAPEAKE LIGHT NOT AVBL
64 E VA BEACH    0250   83 80  210/ 17/ 21 1014.6    4/ 5
DUCK             0200   85 65  210/ 15/ 19   N/A
2 E DUCK         0211      71                N/A     2/ 8
OREGON INLET     0200   85 86  210/ 19/ 23   N/A
13E OREGON INLT  0300      82                N/A     3/ 5
HATTERAS CG      0200   83 83  220/ 11/ 16   N/A
DIAMOND BUOY     0250   85 85  230/ 17/ 21 1016.8    4/ 5   2/ 9
CAPE LOOKOUT     0300   83     210/ 10/ 12 1016.9
BEAUFORT LAB     0200   84 84  210/  7/ 13   N/A
30 SE NEW RVR IN 0208   84 85  220/ 16/ 19 1017.2
30 SE NEW RVR IN 0255      85                N/A     4/ 4
27 SE WRIGHTSVLE 0208   84 85  220/ 16/ 19 1017.6
5 SE WRIGHTSVLE  0208   83 83  230/ 14/ 17 1018.1
225 S CAPE HAT   0250   84 85  190/ 10/ 14 1019.2    2/ 9   2/ 9
41 SE CHARLESTON 0250   85 86  210/ 12/ 14 1017.8    2/ 8   2/ 8

$$



USA.gov is the U.S. government's official web portal to all federal, state and local government web resources and services.